Retour au catalogue

STARLINK-32729

ActifCommunicationsVLEO
NORAD 62497·PAYLOAD·🇺🇸 United States

Lancé Jan 6, 2025 depuis Cape Canaveral Space Force Station

Loading…

Prochains Passages (prochaines 24 heures)

TLE

FraisSource: CelesTrak SupGP

Époque: Sep 15, 2026, 03:42 UTC

1 62497C 25003L   26258.15465278  .00010704  00000+0  38760-3 0  2585
2 62497  43.0028 298.7482 0001569 268.2403 332.7314 15.27582500    12

Suivez STARLINK-32729 en temps réel avec AllMySat

Download on the App Store